Sturgis, MI

8:05 AM EST on November 13, 2019 (GMT -0500)
Kirsch Municipal

Weather History for KIRS - October, 2019

Change the Weather History Date:

Monday, October 21, 2019

  Actual Average (KHAI) Record (KHAI)
Temperature  
Mean Temperature 58 °F -  
Max Temperature 64 °F 58 °F 83 °F (1953)
Min Temperature 53 °F 38 °F 18 °F (1952)
Degree Days  
Heating Degree Days 6    
Growing Degree Days 8 (Base 50)    
Moisture  
Dew Point 52 °F    
Average Humidity 76    
Maximum Humidity 88    
Minimum Humidity 58    
Precipitation  
Precipitation 0.19 in - - ()
Sea Level Pressure  
Sea Level Pressure 29.72 in    
Wind  
Wind Speed 10 mph ()    
Max Wind Speed 28 mph    
Max Gust Speed 40 mph    
Visibility 9.6 miles    
Events Rain    
Averages and records for this station are not official NWS values.
T = Trace of Precipitation, MM = Missing Value Source: Averaged Metar Reports

Daily Weather History Graph

Daily Weather History Graph

Search for Another Location

Airport or City:

Astronomy

Oct. 21, 2019 Rise Set
Actual Time 8:00 AM EDT 6:51 PM EDT
Civil Twilight 7:32 AM EDT 7:19 PM EDT
Nautical Twilight 6:59 AM EDT 7:52 PM EDT
Astronomical Twilight 6:27 AM EDT 8:24 PM EDT
Moon No Moon Rise 3:21 PM EDT (10/21)
Length of Visible Light 11h 47m
Length of Day
10h 50m
Waning Gibbous, 48% of the Moon is Illuminated
Oct 21
Waning Gibbous
Oct 27
New
Nov 4
First Quarter
Nov 12
Full
Nov 19
Last Quarter

Hourly Weather History & Observations

Time (EDT) Temp. Dew Point Humidity Pressure Visibility Wind Dir Wind Speed Gust Speed Precip Events Conditions
12:15 AM 54.0 °F 49.3 °F 84% 29.93 in 10.0 mi East 3.5 mph - N/A   Mostly Cloudy
12:38 AM 54.5 °F 49.1 °F 82% 29.93 in 10.0 mi East 4.6 mph - N/A   Mostly Cloudy
12:56 AM 54.7 °F 49.5 °F 83% 29.92 in 10.0 mi East 4.6 mph - N/A   Overcast
1:15 AM 55.4 °F 49.1 °F 79% 29.92 in 10.0 mi ESE 4.6 mph - N/A   Mostly Cloudy
1:16 AM 55.4 °F 49.1 °F 79% 29.92 in 10.0 mi ESE 4.6 mph - N/A   Overcast
1:35 AM 55.4 °F 49.1 °F 79% 29.92 in 10.0 mi ESE 4.6 mph - N/A   Overcast
1:59 AM 54.7 °F 48.7 °F 80% 29.91 in 10.0 mi East 4.6 mph - N/A   Mostly Cloudy
2:17 AM 54.0 °F 48.4 °F 81% 29.90 in 10.0 mi East 4.6 mph - N/A   Scattered Clouds
2:35 AM 53.6 °F 48.2 °F 82% 29.90 in 10.0 mi ESE 4.6 mph - N/A   Scattered Clouds
2:36 AM 53.6 °F 48.2 °F 82% 29.90 in 10.0 mi ESE 4.6 mph - N/A   Scattered Clouds
2:55 AM 54.0 °F 48.4 °F 81% 29.88 in 10.0 mi ESE 5.8 mph - N/A   Mostly Cloudy
3:15 AM 54.5 °F 47.8 °F 78% 29.87 in 10.0 mi ESE 5.8 mph - N/A   Mostly Cloudy
3:38 AM 56.3 °F 47.7 °F 73% 29.88 in 10.0 mi ESE 6.9 mph - N/A   Overcast
3:56 AM 57.2 °F 47.3 °F 69% 29.88 in 10.0 mi SE 4.6 mph - N/A   Overcast
4:15 AM 57.9 °F 47.1 °F 67% 29.89 in 10.0 mi SE 6.9 mph - N/A   Overcast
4:16 AM 58.1 °F 47.1 °F 67% 29.89 in 10.0 mi SE 5.8 mph - N/A   Overcast
4:35 AM 58.6 °F 46.4 °F 64% 29.88 in 10.0 mi SE 10.4 mph - N/A   Overcast
4:36 AM 58.8 °F 46.4 °F 63% 29.88 in 10.0 mi SE 10.4 mph - N/A   Overcast
4:59 AM 59.0 °F 45.5 °F 61% 29.88 in 10.0 mi SE 10.4 mph - N/A   Overcast
5:17 AM 58.5 °F 45.5 °F 62% 29.87 in 10.0 mi ESE 10.4 mph - N/A   Overcast
5:35 AM 58.5 °F 44.8 °F 60% 29.87 in 10.0 mi ESE 8.1 mph - N/A   Overcast
5:55 AM 58.1 °F 44.4 °F 60% 29.87 in 10.0 mi ESE 8.1 mph - N/A   Overcast
5:56 AM 58.1 °F 44.4 °F 60% 29.87 in 10.0 mi ESE 8.1 mph - N/A   Overcast
6:15 AM 58.1 °F 43.7 °F 59% 29.85 in 10.0 mi ESE 10.4 mph - N/A   Overcast
6:20 AM 58.1 °F 43.3 °F 58% 29.85 in 10.0 mi ESE 11.5 mph - N/A   Overcast
6:38 AM 57.6 °F 42.8 °F 58% 29.84 in 10.0 mi ESE 11.5 mph - N/A   Mostly Cloudy
6:56 AM 57.2 °F 42.8 °F 59% 29.84 in 10.0 mi ESE 11.5 mph 16.1 mph N/A   Mostly Cloudy
7:15 AM 57.2 °F 43.7 °F 61% 29.82 in 10.0 mi ESE 12.7 mph - N/A   Mostly Cloudy
7:16 AM 57.2 °F 43.7 °F 61% 29.82 in 10.0 mi ESE 12.7 mph - N/A   Mostly Cloudy
7:35 AM 57.2 °F 44.8 °F 63% 29.81 in 10.0 mi ESE 13.8 mph 20.7 mph N/A   Overcast
7:36 AM 57.2 °F 44.8 °F 63% 29.81 in 10.0 mi ESE 12.7 mph 20.7 mph N/A   Overcast
7:59 AM 56.8 °F 45.7 °F 66% 29.81 in 10.0 mi SE 11.5 mph - N/A   Overcast
8:17 AM 56.8 °F 46.6 °F 69% 29.80 in 10.0 mi SE 11.5 mph 16.1 mph N/A   Overcast
8:35 AM 56.8 °F 47.3 °F 70% 29.80 in 10.0 mi SE 10.4 mph - N/A   Overcast
8:55 AM 57.2 °F 48.4 °F 72% 29.80 in 10.0 mi SE 11.5 mph 17.3 mph N/A   Mostly Cloudy
9:15 AM 57.4 °F 49.3 °F 74% 29.79 in 10.0 mi SE 12.7 mph 18.4 mph N/A   Mostly Cloudy
9:38 AM 57.7 °F 49.6 °F 74% 29.79 in 10.0 mi SE 12.7 mph 21.9 mph N/A   Mostly Cloudy
9:56 AM 58.3 °F 50.7 °F 76% 29.77 in 5.0 mi SE 11.5 mph - N/A   Haze
10:15 AM 59.0 °F 51.8 °F 77% 29.75 in 10.0 mi SE 15.0 mph 20.7 mph N/A   Clear
10:35 AM 59.4 °F 52.0 °F 77% 29.73 in 7.0 mi SE 17.3 mph 24.2 mph N/A   Scattered Clouds
10:59 AM 59.7 °F 52.9 °F 78% 29.73 in 10.0 mi SE 21.9 mph 26.5 mph N/A Rain Light Rain
11:17 AM 59.4 °F 53.6 °F 81% 29.73 in 10.0 mi SSE 15.0 mph 26.5 mph N/A Rain Light Rain
11:35 AM 59.2 °F 54.7 °F 85% 29.73 in 10.0 mi SSE 16.1 mph 26.5 mph 0.01 in Rain Light Rain
11:36 AM 59.2 °F 54.7 °F 85% 29.73 in 10.0 mi SSE 17.3 mph 26.5 mph 0.01 in Rain Light Rain
11:55 AM 59.0 °F 55.4 °F 88% 29.71 in 7.0 mi SSE 20.7 mph 27.6 mph 0.03 in Rain Light Rain
11:56 AM 59.0 °F 55.4 °F 88% 29.71 in 7.0 mi SE 19.6 mph 27.6 mph 0.03 in Rain Light Rain
12:15 PM 59.2 °F 55.4 °F 87% 29.69 in 10.0 mi SSE 16.1 mph 25.3 mph 0.01 in Rain Light Rain
12:38 PM 59.5 °F 55.8 °F 87% 29.66 in 10.0 mi SE 18.4 mph 25.3 mph 0.02 in Rain Rain
12:55 PM 59.9 °F 55.8 °F 86% 29.68 in 7.0 mi South 16.1 mph 26.5 mph 0.03 in Rain Rain
1:15 PM 59.9 °F 56.3 °F 88% 29.64 in 5.0 mi SSE 21.9 mph 29.9 mph 0.03 in Rain Light Rain
1:35 PM 59.9 °F 56.1 °F 87% 29.62 in 5.0 mi SSE 23.0 mph 34.5 mph 0.06 in Rain Light Rain
1:59 PM 59.9 °F 56.3 °F 88% 29.61 in 7.0 mi SSE 19.6 mph 34.5 mph 0.09 in Rain Light Rain
2:17 PM 60.1 °F 56.3 °F 87% 29.57 in 5.0 mi SE 26.5 mph 40.3 mph 0.02 in Rain Light Rain
2:35 PM 60.3 °F 56.5 °F 87% 29.56 in 10.0 mi SSE 27.6 mph 40.3 mph 0.03 in Rain Light Rain
2:55 PM 60.8 °F 56.7 °F 86% 29.55 in 10.0 mi SE 25.3 mph 32.2 mph 0.03 in   Light Drizzle
3:15 PM 61.3 °F 56.8 °F 85% 29.59 in 10.0 mi SSE 23.0 mph 31.1 mph N/A   Overcast
3:20 PM 61.7 °F 57.2 °F 85% 29.59 in 10.0 mi South 20.7 mph 31.1 mph N/A   Overcast
3:38 PM 61.7 °F 57.2 °F 85% 29.58 in 10.0 mi South 20.7 mph 26.5 mph N/A   Overcast
3:56 PM 62.2 °F 57.4 °F 84% 29.58 in 10.0 mi South 16.1 mph 23.0 mph N/A   Overcast
4:15 PM 62.2 °F 57.4 °F 84% 29.59 in 10.0 mi South 18.4 mph 24.2 mph N/A Rain Rain
4:16 PM 62.2 °F 57.4 °F 84% 29.59 in 10.0 mi South 19.6 mph 25.3 mph N/A Rain Rain
4:35 PM 62.6 °F 57.6 °F 84% 29.59 in 10.0 mi South 13.8 mph 25.3 mph N/A   Overcast
4:59 PM 63.1 °F 57.7 °F 83% 29.57 in 10.0 mi South 12.7 mph 20.7 mph N/A   Overcast
5:17 PM 64.0 °F 57.6 °F 79% 29.57 in 10.0 mi SSW 13.8 mph 34.5 mph N/A   Overcast
5:36 PM 63.5 °F 58.1 °F 83% 29.56 in 10.0 mi South 16.1 mph 27.6 mph N/A   Overcast
5:55 PM 63.9 °F 58.1 °F 81% 29.56 in 10.0 mi South 15.0 mph 25.3 mph N/A   Overcast
6:15 PM 63.5 °F 58.5 °F 84% 29.55 in 10.0 mi South 17.3 mph 24.2 mph N/A   Overcast
6:20 PM 63.7 °F 58.3 °F 83% 29.55 in 10.0 mi South 17.3 mph 24.2 mph N/A   Overcast
6:38 PM 63.9 °F 58.1 °F 81% 29.55 in 10.0 mi South 12.7 mph - N/A   Mostly Cloudy
6:56 PM 63.9 °F 58.5 °F 83% 29.56 in 10.0 mi South 13.8 mph 18.4 mph N/A   Mostly Cloudy
7:15 PM 63.9 °F 59.0 °F 84% 29.56 in 10.0 mi South 9.2 mph - N/A   Overcast
7:35 PM 64.4 °F 58.1 °F 80% 29.56 in 10.0 mi SSW 16.1 mph - N/A   Overcast
7:36 PM 64.4 °F 58.1 °F 80% 29.56 in 10.0 mi South 16.1 mph - N/A   Overcast
7:59 PM 64.6 °F 56.7 °F 75% 29.57 in 10.0 mi SSW 16.1 mph 21.9 mph N/A   Overcast
8:17 PM 64.2 °F 57.2 °F 78% 29.58 in 10.0 mi SSW 10.4 mph - N/A   Overcast
8:35 PM 64.2 °F 57.2 °F 78% 29.59 in 10.0 mi SSW 13.8 mph 20.7 mph N/A   Overcast
8:55 PM 63.7 °F 56.5 °F 77% 29.59 in 10.0 mi SW 13.8 mph 23.0 mph N/A   Overcast
8:56 PM 63.7 °F 56.3 °F 77% 29.59 in 10.0 mi SW 15.0 mph 23.0 mph N/A   Overcast
9:15 PM 63.3 °F 55.9 °F 77% 29.59 in 10.0 mi SSW 15.0 mph 21.9 mph N/A   Overcast
9:38 PM 62.8 °F 55.6 °F 77% 29.59 in 10.0 mi SSW 13.8 mph - N/A   Mostly Cloudy
9:56 PM 62.8 °F 55.6 °F 77% 29.59 in 10.0 mi SSW 12.7 mph 18.4 mph N/A   Mostly Cloudy
10:15 PM 62.2 °F 55.8 °F 79% 29.59 in 10.0 mi SSW 13.8 mph - N/A   Mostly Cloudy
10:16 PM 62.2 °F 55.8 °F 79% 29.59 in 10.0 mi SSW 12.7 mph - N/A   Mostly Cloudy
10:35 PM 62.6 °F 55.4 °F 77% 29.60 in 10.0 mi SSW 13.8 mph 23.0 mph N/A   Overcast
10:59 PM 57.9 °F 51.3 °F 78% 29.64 in 10.0 mi West 16.1 mph 24.2 mph 0.01 in Rain Rain
11:17 PM 57.0 °F 47.3 °F 70% 29.64 in 10.0 mi West 12.7 mph 23.0 mph N/A Rain Light Rain
11:35 PM 56.5 °F 45.0 °F 65% 29.64 in 10.0 mi WSW 13.8 mph 24.2 mph N/A   Scattered Clouds
11:36 PM 56.3 °F 45.0 °F 66% 29.64 in 10.0 mi WSW 13.8 mph 24.2 mph N/A   Scattered Clouds
11:55 PM 55.4 °F 43.5 °F 64% 29.65 in 10.0 mi WSW 13.8 mph 19.6 mph N/A   Scattered Clouds
11:56 PM 55.4 °F 43.3 °F 64% 29.64 in 10.0 mi WSW 15.0 mph 19.6 mph N/A   Scattered Clouds